Year,Month,Day,Hour,Minute,Value (Times are PST for insolation in W/m^2)
2018,01,25,00,00,0.00
2018,01,25,00,01,0.00
2018,01,25,00,02,0.00
2018,01,25,00,03,0.00
2018,01,25,00,04,0.00
2018,01,25,00,05,0.00
2018,01,25,00,06,0.00
2018,01,25,00,07,0.00
2018,01,25,00,08,0.00
2018,01,25,00,09,0.00
2018,01,25,00,10,0.00
2018,01,25,00,11,0.00
2018,01,25,00,12,0.00
2018,01,25,00,13,0.00
2018,01,25,00,14,0.00
2018,01,25,00,15,0.00
2018,01,25,00,16,0.00
2018,01,25,00,17,0.00
2018,01,25,00,18,0.00
2018,01,25,00,19,0.00
2018,01,25,00,20,0.00
2018,01,25,00,21,0.00
2018,01,25,00,22,0.00
2018,01,25,00,23,0.00
2018,01,25,00,24,0.00
2018,01,25,00,25,0.00
2018,01,25,00,26,0.00
2018,01,25,00,27,0.00
2018,01,25,00,28,0.00
2018,01,25,00,29,0.00
2018,01,25,00,30,0.00
2018,01,25,00,31,0.00
2018,01,25,00,32,0.00
2018,01,25,00,33,0.00
2018,01,25,00,34,0.00
2018,01,25,00,35,0.00
2018,01,25,00,36,0.00
2018,01,25,00,37,0.00
2018,01,25,00,38,0.00
2018,01,25,00,39,0.00
2018,01,25,00,40,0.00
2018,01,25,00,41,0.00
2018,01,25,00,42,0.00
2018,01,25,00,43,0.00
2018,01,25,00,44,0.00
2018,01,25,00,45,0.00
2018,01,25,00,46,0.00
2018,01,25,00,47,0.00
2018,01,25,00,48,0.00
2018,01,25,00,49,0.00
2018,01,25,00,50,0.00
2018,01,25,00,51,0.00
2018,01,25,00,52,0.00
2018,01,25,00,53,0.00
2018,01,25,00,54,0.00
2018,01,25,00,55,0.00
2018,01,25,00,56,0.00
2018,01,25,00,57,0.00
2018,01,25,00,58,0.00
2018,01,25,00,59,0.00
2018,01,25,01,00,0.00
2018,01,25,01,01,0.00
2018,01,25,01,02,0.00
2018,01,25,01,03,0.00
2018,01,25,01,04,0.00
2018,01,25,01,05,0.00
2018,01,25,01,06,0.00
2018,01,25,01,07,0.00
2018,01,25,01,08,0.00
2018,01,25,01,09,0.00
2018,01,25,01,10,0.00
2018,01,25,01,11,0.00
2018,01,25,01,12,0.00
2018,01,25,01,13,0.00
2018,01,25,01,14,0.00
2018,01,25,01,15,0.00
2018,01,25,01,16,0.00
2018,01,25,01,17,0.00
2018,01,25,01,18,0.00
2018,01,25,01,19,0.00
2018,01,25,01,20,0.00
2018,01,25,01,21,0.00
2018,01,25,01,22,0.00
2018,01,25,01,23,0.00
2018,01,25,01,24,0.00
2018,01,25,01,25,0.00
2018,01,25,01,26,0.00
2018,01,25,01,27,0.00
2018,01,25,01,28,0.00
2018,01,25,01,29,0.00
2018,01,25,01,30,0.00
2018,01,25,01,31,0.00
2018,01,25,01,32,0.00
2018,01,25,01,33,0.00
2018,01,25,01,34,0.00
2018,01,25,01,35,0.00
2018,01,25,01,36,0.00
2018,01,25,01,37,0.00
2018,01,25,01,38,0.00
2018,01,25,01,39,0.00
2018,01,25,01,40,0.00
2018,01,25,01,41,0.00
2018,01,25,01,42,0.00
2018,01,25,01,43,0.00
2018,01,25,01,44,0.00
2018,01,25,01,45,0.00
2018,01,25,01,46,0.00
2018,01,25,01,47,0.00
2018,01,25,01,48,0.00
2018,01,25,01,49,0.00
2018,01,25,01,50,0.00
2018,01,25,01,51,0.00
2018,01,25,01,52,0.00
2018,01,25,01,53,0.00
2018,01,25,01,54,0.00
2018,01,25,01,55,0.00
2018,01,25,01,56,0.00
2018,01,25,01,57,0.00
2018,01,25,01,58,0.00
2018,01,25,01,59,0.00
2018,01,25,02,00,0.00
2018,01,25,02,01,0.00
2018,01,25,02,02,0.00
2018,01,25,02,03,0.00
2018,01,25,02,04,0.00
2018,01,25,02,05,0.00
2018,01,25,02,06,0.00
2018,01,25,02,07,0.00
2018,01,25,02,08,0.00
2018,01,25,02,09,0.00
2018,01,25,02,10,0.00
2018,01,25,02,11,0.00
2018,01,25,02,12,0.00
2018,01,25,02,13,0.00
2018,01,25,02,14,0.00
2018,01,25,02,15,0.00
2018,01,25,02,16,0.00
2018,01,25,02,17,0.00
2018,01,25,02,18,0.00
2018,01,25,02,19,0.00
2018,01,25,02,20,0.00
2018,01,25,02,21,0.00
2018,01,25,02,22,0.00
2018,01,25,02,23,0.00
2018,01,25,02,24,0.00
2018,01,25,02,25,0.00
2018,01,25,02,26,0.00
2018,01,25,02,27,0.00
2018,01,25,02,28,0.00
2018,01,25,02,29,0.00
2018,01,25,02,30,0.00
2018,01,25,02,31,0.00
2018,01,25,02,32,0.00
2018,01,25,02,33,0.00
2018,01,25,02,34,0.00
2018,01,25,02,35,0.00
2018,01,25,02,36,0.00
2018,01,25,02,37,0.00
2018,01,25,02,38,0.00
2018,01,25,02,39,0.00
2018,01,25,02,40,0.00
2018,01,25,02,41,0.00
2018,01,25,02,42,0.00
2018,01,25,02,43,0.00
2018,01,25,02,44,0.00
2018,01,25,02,45,0.00
2018,01,25,02,46,0.00
2018,01,25,02,47,0.00
2018,01,25,02,48,0.00
2018,01,25,02,49,0.00
2018,01,25,02,50,0.00
2018,01,25,02,51,0.00
2018,01,25,02,52,0.00
2018,01,25,02,53,0.00
2018,01,25,02,54,0.00
2018,01,25,02,55,0.00
2018,01,25,02,56,0.00
2018,01,25,02,57,0.00
2018,01,25,02,58,0.00
2018,01,25,02,59,0.00
2018,01,25,03,00,0.00
2018,01,25,03,01,0.00
2018,01,25,03,02,0.00
2018,01,25,03,03,0.00
2018,01,25,03,04,0.00
2018,01,25,03,05,0.00
2018,01,25,03,06,0.00
2018,01,25,03,07,0.00
2018,01,25,03,08,0.00
2018,01,25,03,09,0.00
2018,01,25,03,10,0.00
2018,01,25,03,11,0.00
2018,01,25,03,12,0.00
2018,01,25,03,13,0.00
2018,01,25,03,14,0.00
2018,01,25,03,15,0.00
2018,01,25,03,16,0.00
2018,01,25,03,17,0.00
2018,01,25,03,18,0.00
2018,01,25,03,19,0.00
2018,01,25,03,20,0.00
2018,01,25,03,21,0.00
2018,01,25,03,22,0.00
2018,01,25,03,23,0.00
2018,01,25,03,24,0.00
2018,01,25,03,25,0.00
2018,01,25,03,26,0.00
2018,01,25,03,27,0.00
2018,01,25,03,28,0.00
2018,01,25,03,29,0.00
2018,01,25,03,30,0.00
2018,01,25,03,31,0.00
2018,01,25,03,32,0.00
2018,01,25,03,33,0.00
2018,01,25,03,34,0.00
2018,01,25,03,35,0.00
2018,01,25,03,36,0.00
2018,01,25,03,37,0.00
2018,01,25,03,38,0.00
2018,01,25,03,39,0.00
2018,01,25,03,40,0.00
2018,01,25,03,41,0.00
2018,01,25,03,42,0.00
2018,01,25,03,43,0.00
2018,01,25,03,44,0.00
2018,01,25,03,45,0.00
2018,01,25,03,46,0.00
2018,01,25,03,47,0.00
2018,01,25,03,48,0.00
2018,01,25,03,49,0.00
2018,01,25,03,50,0.00
2018,01,25,03,51,0.00
2018,01,25,03,52,0.00
2018,01,25,03,53,0.00
2018,01,25,03,54,0.00
2018,01,25,03,55,0.00
2018,01,25,03,56,0.00
2018,01,25,03,57,0.00
2018,01,25,03,58,0.00
2018,01,25,03,59,0.00
2018,01,25,04,00,0.00
2018,01,25,04,01,0.00
2018,01,25,04,02,0.00
2018,01,25,04,03,0.00
2018,01,25,04,04,0.00
2018,01,25,04,08,0.00
2018,01,25,04,09,0.00
2018,01,25,04,10,0.00
2018,01,25,04,11,0.00
2018,01,25,04,12,0.00
2018,01,25,04,13,0.00
2018,01,25,04,14,0.00
2018,01,25,04,15,0.00
2018,01,25,04,16,0.00
2018,01,25,04,17,0.00
2018,01,25,04,18,0.00
2018,01,25,04,19,0.00
2018,01,25,04,20,0.00
2018,01,25,04,21,0.00
2018,01,25,04,22,0.00
2018,01,25,04,23,0.00
2018,01,25,04,24,0.00
2018,01,25,04,25,0.00
2018,01,25,04,26,0.00
2018,01,25,04,27,0.00
2018,01,25,04,28,0.00
2018,01,25,04,29,0.00
2018,01,25,04,30,0.00
2018,01,25,04,31,0.00
2018,01,25,04,32,0.00
2018,01,25,04,33,0.00
2018,01,25,04,34,0.00
2018,01,25,04,35,0.00
2018,01,25,04,36,0.00
2018,01,25,04,37,0.00
2018,01,25,04,38,0.00
2018,01,25,04,39,0.00
2018,01,25,04,40,0.00
2018,01,25,04,41,0.00
2018,01,25,04,42,0.00
2018,01,25,04,43,0.00
2018,01,25,04,44,0.00
2018,01,25,04,45,0.00
2018,01,25,04,46,0.00
2018,01,25,04,47,0.00
2018,01,25,04,48,0.00
2018,01,25,04,49,0.00
2018,01,25,04,50,0.00
2018,01,25,04,51,0.00
2018,01,25,04,52,0.00
2018,01,25,04,53,0.00
2018,01,25,04,54,0.00
2018,01,25,04,55,0.00
2018,01,25,04,56,0.00
2018,01,25,04,57,0.00
2018,01,25,04,58,0.00
2018,01,25,04,59,0.00
2018,01,25,05,00,0.00
2018,01,25,05,01,0.00
2018,01,25,05,02,0.00
2018,01,25,05,03,0.00
2018,01,25,05,04,0.00
2018,01,25,05,05,0.00
2018,01,25,05,06,0.00
2018,01,25,05,07,0.00
2018,01,25,05,08,0.00
2018,01,25,05,09,0.00
2018,01,25,05,10,0.00
2018,01,25,05,11,0.00
2018,01,25,05,12,0.00
2018,01,25,05,13,0.00
2018,01,25,05,14,0.00
2018,01,25,05,15,0.00
2018,01,25,05,16,0.00
2018,01,25,05,17,0.00
2018,01,25,05,18,0.00
2018,01,25,05,19,0.00
2018,01,25,05,20,0.00
2018,01,25,05,21,0.00
2018,01,25,05,22,0.00
2018,01,25,05,23,0.00
2018,01,25,05,24,0.00
2018,01,25,05,25,0.00
2018,01,25,05,26,0.00
2018,01,25,05,27,0.00
2018,01,25,05,28,0.00
2018,01,25,05,29,0.00
2018,01,25,05,30,0.00
2018,01,25,05,31,0.00
2018,01,25,05,32,0.00
2018,01,25,05,33,0.00
2018,01,25,05,34,0.00
2018,01,25,05,35,0.00
2018,01,25,05,36,0.00
2018,01,25,05,37,0.00
2018,01,25,05,38,0.00
2018,01,25,05,39,0.00
2018,01,25,05,40,0.00
2018,01,25,05,41,0.00
2018,01,25,05,42,0.00
2018,01,25,05,43,0.00
2018,01,25,05,44,0.00
2018,01,25,05,45,0.00
2018,01,25,05,46,0.00
2018,01,25,05,47,0.00
2018,01,25,05,48,0.00
2018,01,25,05,49,0.00
2018,01,25,05,50,0.00
2018,01,25,05,51,0.00
2018,01,25,05,52,0.00
2018,01,25,05,53,0.00
2018,01,25,05,54,0.00
2018,01,25,05,55,0.00
2018,01,25,05,56,0.00
2018,01,25,05,57,0.00
2018,01,25,05,58,0.00
2018,01,25,05,59,0.00
2018,01,25,06,00,0.00
2018,01,25,06,01,0.00
2018,01,25,06,02,0.00
2018,01,25,06,03,0.00
2018,01,25,06,04,0.00
2018,01,25,06,05,0.00
2018,01,25,06,06,0.00
2018,01,25,06,07,0.00
2018,01,25,06,08,0.00
2018,01,25,06,09,0.00
2018,01,25,06,10,0.00
2018,01,25,06,11,0.00
2018,01,25,06,12,0.00
2018,01,25,06,13,0.00
2018,01,25,06,14,0.00
2018,01,25,06,15,0.00
2018,01,25,06,16,0.00
2018,01,25,06,17,0.00
2018,01,25,06,18,0.00
2018,01,25,06,19,0.00
2018,01,25,06,20,0.00
2018,01,25,06,21,0.00
2018,01,25,06,22,0.00
2018,01,25,06,23,0.00
2018,01,25,06,24,0.00
2018,01,25,06,25,0.00
2018,01,25,06,26,0.00
2018,01,25,06,27,0.00
2018,01,25,06,28,0.00
2018,01,25,06,29,0.00
2018,01,25,06,30,0.00
2018,01,25,06,31,0.00
2018,01,25,06,32,0.00
2018,01,25,06,33,0.00
2018,01,25,06,34,0.00
2018,01,25,06,35,0.00
2018,01,25,06,36,0.00
2018,01,25,06,37,0.00
2018,01,25,06,38,0.00
2018,01,25,06,39,0.00
2018,01,25,06,40,0.00
2018,01,25,06,41,0.00
2018,01,25,06,42,0.00
2018,01,25,06,43,0.00
2018,01,25,06,44,0.00
2018,01,25,06,45,0.00
2018,01,25,06,46,0.00
2018,01,25,06,47,0.00
2018,01,25,06,48,0.00
2018,01,25,06,49,0.00
2018,01,25,06,50,0.00
2018,01,25,06,51,0.00
2018,01,25,06,52,0.00
2018,01,25,06,53,0.00
2018,01,25,06,54,0.00
2018,01,25,06,55,0.00
2018,01,25,06,56,0.00
2018,01,25,06,57,0.00
2018,01,25,06,58,0.00
2018,01,25,06,59,0.00
2018,01,25,07,00,0.00
2018,01,25,07,01,0.00
2018,01,25,07,02,0.00
2018,01,25,07,03,0.00
2018,01,25,07,04,0.00
2018,01,25,07,05,0.00
2018,01,25,07,06,0.00
2018,01,25,07,07,0.00
2018,01,25,07,08,0.00
2018,01,25,07,09,0.00
2018,01,25,07,10,0.00
2018,01,25,07,11,0.00
2018,01,25,07,12,0.00
2018,01,25,07,13,0.00
2018,01,25,07,14,0.00
2018,01,25,07,15,0.00
2018,01,25,07,16,0.00
2018,01,25,07,17,0.00
2018,01,25,07,18,0.00
2018,01,25,07,19,0.00
2018,01,25,07,20,0.00
2018,01,25,07,21,0.00
2018,01,25,07,22,0.00
2018,01,25,07,23,0.00
2018,01,25,07,24,0.00
2018,01,25,07,25,0.00
2018,01,25,07,26,0.00
2018,01,25,07,27,0.00
2018,01,25,07,28,0.00
2018,01,25,07,29,0.00
2018,01,25,07,30,0.00
2018,01,25,07,31,0.00
2018,01,25,07,32,0.00
2018,01,25,07,33,0.00
2018,01,25,07,34,0.00
2018,01,25,07,35,0.00
2018,01,25,07,36,0.00
2018,01,25,07,37,0.00
2018,01,25,07,38,0.00
2018,01,25,07,39,0.00
2018,01,25,07,40,0.00
2018,01,25,07,41,0.00
2018,01,25,07,42,0.00
2018,01,25,07,43,0.00
2018,01,25,07,44,0.00
2018,01,25,07,45,0.00
2018,01,25,07,46,0.00
2018,01,25,07,47,0.00
2018,01,25,07,48,0.00
2018,01,25,07,49,0.00
2018,01,25,07,50,0.00
2018,01,25,07,51,0.00
2018,01,25,07,52,0.00
2018,01,25,07,53,0.00
2018,01,25,07,54,0.00
2018,01,25,07,55,0.00
2018,01,25,07,56,0.00
2018,01,25,07,57,0.00
2018,01,25,07,58,0.00
2018,01,25,07,59,0.00
2018,01,25,08,00,0.00
2018,01,25,08,01,0.00
2018,01,25,08,02,0.00
2018,01,25,08,03,0.00
2018,01,25,08,04,0.00
2018,01,25,08,05,0.00
2018,01,25,08,06,0.00
2018,01,25,08,07,0.00
2018,01,25,08,08,0.00
2018,01,25,08,09,0.00
2018,01,25,08,10,0.00
2018,01,25,08,11,0.00
2018,01,25,08,12,0.00
2018,01,25,08,13,0.00
2018,01,25,08,14,0.00
2018,01,25,08,15,0.20
2018,01,25,08,16,5.00
2018,01,25,08,17,5.00
2018,01,25,08,18,5.00
2018,01,25,08,19,6.10
2018,01,25,08,20,7.00
2018,01,25,08,21,8.60
2018,01,25,08,22,9.20
2018,01,25,08,23,11.00
2018,01,25,08,24,11.00
2018,01,25,08,25,11.00
2018,01,25,08,26,11.00
2018,01,25,08,27,11.00
2018,01,25,08,28,11.00
2018,01,25,08,29,10.80
2018,01,25,08,30,9.00
2018,01,25,08,31,8.20
2018,01,25,08,32,8.00
2018,01,25,08,33,9.00
2018,01,25,08,34,10.50
2018,01,25,08,35,11.00
2018,01,25,08,36,12.00
2018,01,25,08,37,12.00
2018,01,25,08,38,12.70
2018,01,25,08,39,14.00
2018,01,25,08,40,14.00
2018,01,25,08,41,14.00
2018,01,25,08,42,15.70
2018,01,25,08,43,16.00
2018,01,25,08,44,16.00
2018,01,25,08,45,16.80
2018,01,25,08,46,18.50
2018,01,25,08,47,19.00
2018,01,25,08,48,18.20
2018,01,25,08,49,18.00
2018,01,25,08,50,16.00
2018,01,25,08,51,16.00
2018,01,25,08,52,16.80
2018,01,25,08,53,18.50
2018,01,25,08,54,19.00
2018,01,25,08,55,19.00
2018,01,25,08,56,19.20
2018,01,25,08,57,23.40
2018,01,25,08,58,25.00
2018,01,25,08,59,25.00
2018,01,25,09,00,25.00
2018,01,25,09,01,25.60
2018,01,25,09,02,27.50
2018,01,25,09,03,29.80
2018,01,25,09,04,30.40
2018,01,25,09,05,32.30
2018,01,25,09,06,33.90
2018,01,25,09,07,35.00
2018,01,25,09,08,35.00
2018,01,25,09,09,33.40
2018,01,25,09,10,34.90
2018,01,25,09,11,34.40
2018,01,25,09,12,30.80
2018,01,25,09,13,26.70
2018,01,25,09,14,23.90
2018,01,25,09,15,23.00
2018,01,25,09,16,23.00
2018,01,25,09,17,21.30
2018,01,25,09,18,23.60
2018,01,25,09,19,28.50
2018,01,25,09,20,33.90
2018,01,25,09,21,35.00
2018,01,25,09,22,36.50
2018,01,25,09,23,39.50
2018,01,25,09,24,41.90
2018,01,25,09,25,42.00
2018,01,25,09,26,42.60
2018,01,25,09,27,45.40
2018,01,25,09,28,49.50
2018,01,25,09,29,53.20
2018,01,25,09,30,55.80
2018,01,25,09,31,53.90
2018,01,25,09,32,53.80
2018,01,25,09,33,57.60
2018,01,25,09,34,61.00
2018,01,25,09,35,60.80
2018,01,25,09,36,58.50
2018,01,25,09,37,59.70
2018,01,25,09,38,63.50
2018,01,25,09,39,65.90
2018,01,25,09,40,61.70
2018,01,25,09,41,61.00
2018,01,25,09,42,66.70
2018,01,25,09,43,74.20
2018,01,25,09,44,83.20
2018,01,25,09,45,95.80
2018,01,25,09,46,100.60
2018,01,25,09,47,102.90
2018,01,25,09,48,109.50
2018,01,25,09,49,122.70
2018,01,25,09,50,135.00
2018,01,25,09,51,142.10
2018,01,25,09,52,156.50
2018,01,25,09,53,164.20
2018,01,25,09,54,168.70
2018,01,25,09,55,175.60
2018,01,25,09,56,180.40
2018,01,25,09,57,177.10
2018,01,25,09,58,178.40
2018,01,25,09,59,183.50
2018,01,25,10,00,186.60
2018,01,25,10,01,188.00
2018,01,25,10,02,186.30
2018,01,25,10,03,178.70
2018,01,25,10,04,167.10
2018,01,25,10,05,154.90
2018,01,25,10,06,148.00
2018,01,25,10,07,141.30
2018,01,25,10,08,130.40
2018,01,25,10,09,119.70
2018,01,25,10,10,109.70
2018,01,25,10,11,105.30
2018,01,25,10,12,107.80
2018,01,25,10,13,116.90
2018,01,25,10,14,121.00
2018,01,25,10,15,122.10
2018,01,25,10,16,122.20
2018,01,25,10,17,121.60
2018,01,25,10,18,118.40
2018,01,25,10,19,117.60
2018,01,25,10,20,113.30
2018,01,25,10,21,109.50
2018,01,25,10,22,107.00
2018,01,25,10,23,108.20
2018,01,25,10,24,110.50
2018,01,25,10,25,115.30
2018,01,25,10,26,120.20
2018,01,25,10,27,120.20
2018,01,25,10,28,116.50
2018,01,25,10,29,112.40
2018,01,25,10,30,111.00
2018,01,25,10,31,112.50
2018,01,25,10,32,113.90
2018,01,25,10,33,114.00
2018,01,25,10,34,113.20
2018,01,25,10,35,110.10
2018,01,25,10,36,109.00
2018,01,25,10,37,111.60
2018,01,25,10,38,116.90
2018,01,25,10,39,119.90
2018,01,25,10,40,119.60
2018,01,25,10,41,116.40
2018,01,25,10,42,109.10
2018,01,25,10,43,100.90
2018,01,25,10,44,94.80
2018,01,25,10,45,91.50
2018,01,25,10,46,88.00
2018,01,25,10,47,85.70
2018,01,25,10,48,84.00
2018,01,25,10,49,84.00
2018,01,25,10,50,84.00
2018,01,25,10,51,85.40
2018,01,25,10,52,84.40
2018,01,25,10,53,84.10
2018,01,25,10,54,86.00
2018,01,25,10,55,86.00
2018,01,25,10,56,87.00
2018,01,25,10,57,88.00
2018,01,25,10,58,89.40
2018,01,25,10,59,90.80
2018,01,25,11,00,93.00
2018,01,25,11,01,95.60
2018,01,25,11,02,98.80
2018,01,25,11,03,101.90
2018,01,25,11,04,105.90
2018,01,25,11,05,109.90
2018,01,25,11,06,113.50
2018,01,25,11,07,118.20
2018,01,25,11,08,120.20
2018,01,25,11,09,121.00
2018,01,25,11,10,120.50
2018,01,25,11,11,118.70
2018,01,25,11,12,118.00
2018,01,25,11,13,116.30
2018,01,25,11,14,116.00
2018,01,25,11,15,116.00
2018,01,25,11,16,116.00
2018,01,25,11,17,117.00
2018,01,25,11,18,118.00
2018,01,25,11,19,119.40
2018,01,25,11,20,120.90
2018,01,25,11,21,123.30
2018,01,25,11,22,125.50
2018,01,25,11,23,127.00
2018,01,25,11,24,126.00
2018,01,25,11,25,125.00
2018,01,25,11,26,123.40
2018,01,25,11,27,121.20
2018,01,25,11,28,117.70
2018,01,25,11,29,115.40
2018,01,25,11,30,114.00
2018,01,25,11,31,113.50
2018,01,25,11,32,110.40
2018,01,25,11,33,105.80
2018,01,25,11,34,105.00
2018,01,25,11,35,104.60
2018,01,25,11,36,100.70
2018,01,25,11,37,96.70
2018,01,25,11,38,93.90
2018,01,25,11,39,93.00
2018,01,25,11,40,94.60
2018,01,25,11,41,97.90
2018,01,25,11,42,100.30
2018,01,25,11,43,102.70
2018,01,25,11,44,105.30
2018,01,25,11,45,107.00
2018,01,25,11,46,104.90
2018,01,25,11,47,99.10
2018,01,25,11,48,91.10
2018,01,25,11,49,84.80
2018,01,25,11,50,79.00
2018,01,25,11,51,79.00
2018,01,25,11,52,79.00
2018,01,25,11,53,80.40
2018,01,25,11,54,81.00
2018,01,25,11,55,84.70
2018,01,25,11,56,95.00
2018,01,25,11,57,106.00
2018,01,25,11,58,116.80
2018,01,25,11,59,125.00
2018,01,25,12,00,134.80
2018,01,25,12,01,146.40
2018,01,25,12,02,158.50
2018,01,25,12,03,171.00
2018,01,25,12,04,180.70
2018,01,25,12,05,186.50
2018,01,25,12,06,189.30
2018,01,25,12,07,190.00
2018,01,25,12,08,190.00
2018,01,25,12,09,187.60
2018,01,25,12,10,183.60
2018,01,25,12,11,177.00
2018,01,25,12,12,170.30
2018,01,25,12,13,162.50
2018,01,25,12,14,156.10
2018,01,25,12,15,148.40
2018,01,25,12,16,141.60
2018,01,25,12,17,139.00
2018,01,25,12,18,140.20
2018,01,25,12,19,144.10
2018,01,25,12,20,146.00
2018,01,25,12,21,144.40
2018,01,25,12,22,140.90
2018,01,25,12,23,133.90
2018,01,25,12,24,125.70
2018,01,25,12,25,117.40
2018,01,25,12,26,111.40
2018,01,25,12,27,105.80
2018,01,25,12,28,99.10
2018,01,25,12,29,95.00
2018,01,25,12,30,89.10
2018,01,25,12,31,83.70
2018,01,25,12,32,83.00
2018,01,25,12,33,83.00
2018,01,25,12,34,81.70
2018,01,25,12,35,77.10
2018,01,25,12,36,64.50
2018,01,25,12,37,52.10
2018,01,25,12,38,42.50
2018,01,25,12,39,37.20
2018,01,25,12,40,37.20
2018,01,25,12,41,42.60
2018,01,25,12,42,46.40
2018,01,25,12,43,49.10
2018,01,25,12,44,51.00
2018,01,25,12,45,50.30
2018,01,25,12,46,48.00
2018,01,25,12,47,46.40
2018,01,25,12,48,48.10
2018,01,25,12,49,55.00
2018,01,25,12,50,63.00
2018,01,25,12,51,67.50
2018,01,25,12,52,69.40
2018,01,25,12,53,69.50
2018,01,25,12,54,62.20
2018,01,25,12,55,52.70
2018,01,25,12,56,51.00
2018,01,25,12,57,59.00
2018,01,25,12,58,70.80
2018,01,25,12,59,78.30
2018,01,25,13,00,84.30
2018,01,25,13,01,93.60
2018,01,25,13,02,100.80
2018,01,25,13,03,103.70
2018,01,25,13,04,101.70
2018,01,25,13,05,99.50
2018,01,25,13,06,97.60
2018,01,25,13,07,94.90
2018,01,25,13,08,87.30
2018,01,25,13,09,78.80
2018,01,25,13,10,74.40
2018,01,25,13,11,66.00
2018,01,25,13,12,58.40
2018,01,25,13,13,52.70
2018,01,25,13,14,49.90
2018,01,25,13,15,49.00
2018,01,25,13,16,52.20
2018,01,25,13,17,54.10
2018,01,25,13,18,58.40
2018,01,25,13,19,58.90
2018,01,25,13,20,53.90
2018,01,25,13,21,50.00
2018,01,25,13,22,51.70
2018,01,25,13,23,58.80
2018,01,25,13,24,59.70
2018,01,25,13,25,54.00
2018,01,25,13,26,54.60
2018,01,25,13,27,59.00
2018,01,25,13,28,70.30
2018,01,25,13,29,81.50
2018,01,25,13,30,95.50
2018,01,25,13,31,141.80
2018,01,25,13,32,204.00
2018,01,25,13,33,255.70
2018,01,25,13,34,394.90
2018,01,25,13,35,484.30
2018,01,25,13,36,534.30
2018,01,25,13,37,522.90
2018,01,25,13,38,504.10
2018,01,25,13,39,497.00
2018,01,25,13,40,485.90
2018,01,25,13,41,461.50
2018,01,25,13,42,453.60
2018,01,25,13,43,448.00
2018,01,25,13,44,218.50
2018,01,25,13,45,178.00
2018,01,25,13,46,228.20
2018,01,25,13,47,429.00
2018,01,25,13,48,318.00
2018,01,25,13,49,211.00
2018,01,25,13,50,214.00
2018,01,25,13,51,214.00
2018,01,25,13,52,226.80
2018,01,25,13,53,299.40
2018,01,25,13,54,252.40
2018,01,25,13,55,205.50
2018,01,25,13,56,188.00
2018,01,25,13,57,256.20
2018,01,25,13,58,329.60
2018,01,25,13,59,289.40
2018,01,25,14,00,298.50
2018,01,25,14,01,367.90
2018,01,25,14,02,362.00
2018,01,25,14,03,342.80
2018,01,25,14,04,332.00
2018,01,25,14,05,281.90
2018,01,25,14,06,216.60
2018,01,25,14,07,299.00
2018,01,25,14,08,267.40
2018,01,25,14,09,220.00
2018,01,25,14,10,142.70
2018,01,25,14,11,99.10
2018,01,25,14,12,98.80
2018,01,25,14,13,119.10
2018,01,25,14,14,145.80
2018,01,25,14,15,144.00
2018,01,25,14,16,116.80
2018,01,25,14,17,116.30
2018,01,25,14,18,133.90
2018,01,25,14,19,152.50
2018,01,25,14,20,135.70
2018,01,25,14,21,129.10
2018,01,25,14,22,131.30
2018,01,25,14,23,135.80
2018,01,25,14,24,150.00
2018,01,25,14,25,135.40
2018,01,25,14,26,101.40
2018,01,25,14,27,98.90
2018,01,25,14,28,109.30
2018,01,25,14,29,112.60
2018,01,25,14,30,112.80
2018,01,25,14,31,123.10
2018,01,25,14,32,144.20
2018,01,25,14,33,154.10
2018,01,25,14,34,147.30
2018,01,25,14,35,138.50
2018,01,25,14,36,142.10
2018,01,25,14,37,186.00
2018,01,25,14,38,196.00
2018,01,25,14,39,190.30
2018,01,25,14,40,158.40
2018,01,25,14,41,142.80
2018,01,25,14,42,117.70
2018,01,25,14,43,130.00
2018,01,25,14,44,153.00
2018,01,25,14,45,177.80
2018,01,25,14,46,197.10
2018,01,25,14,47,191.00
2018,01,25,14,48,227.80
2018,01,25,14,49,267.50
2018,01,25,14,50,239.20
2018,01,25,14,51,199.30
2018,01,25,14,52,117.30
2018,01,25,14,53,129.20
2018,01,25,14,54,59.10
2018,01,25,14,55,54.00
2018,01,25,14,56,52.00
2018,01,25,14,57,69.40
2018,01,25,14,58,78.90
2018,01,25,14,59,77.90
2018,01,25,15,00,102.90
2018,01,25,15,01,111.90
2018,01,25,15,02,122.70
2018,01,25,15,03,103.40
2018,01,25,15,04,81.00
2018,01,25,15,05,72.00
2018,01,25,15,06,60.10
2018,01,25,15,07,54.40
2018,01,25,15,08,55.50
2018,01,25,15,09,66.00
2018,01,25,15,10,76.00
2018,01,25,15,11,71.10
2018,01,25,15,12,65.70
2018,01,25,15,13,66.60
2018,01,25,15,14,66.80
2018,01,25,15,15,66.00
2018,01,25,15,16,72.30
2018,01,25,15,17,77.90
2018,01,25,15,18,77.40
2018,01,25,15,19,71.70
2018,01,25,15,20,70.00
2018,01,25,15,21,70.40
2018,01,25,15,22,74.50
2018,01,25,15,23,76.00
2018,01,25,15,24,77.50
2018,01,25,15,25,82.00
2018,01,25,15,26,87.00
2018,01,25,15,27,92.20
2018,01,25,15,28,93.90
2018,01,25,15,29,83.30
2018,01,25,15,30,79.70
2018,01,25,15,31,75.60
2018,01,25,15,32,71.50
2018,01,25,15,33,67.80
2018,01,25,15,34,65.30
2018,01,25,15,35,65.30
2018,01,25,15,36,67.60
2018,01,25,15,37,68.20
2018,01,25,15,38,67.00
2018,01,25,15,39,67.00
2018,01,25,15,40,68.50
2018,01,25,15,41,69.00
2018,01,25,15,42,70.00
2018,01,25,15,43,71.10
2018,01,25,15,44,75.30
2018,01,25,15,45,79.20
2018,01,25,15,46,84.30
2018,01,25,15,47,91.60
2018,01,25,15,48,96.70
2018,01,25,15,49,98.00
2018,01,25,15,50,97.20
2018,01,25,15,51,93.30
2018,01,25,15,52,90.50
2018,01,25,15,53,90.00
2018,01,25,15,54,90.00
2018,01,25,15,55,88.20
2018,01,25,15,56,88.00
2018,01,25,15,57,88.60
2018,01,25,15,58,90.00
2018,01,25,15,59,90.60
2018,01,25,16,00,92.30
2018,01,25,16,01,94.60
2018,01,25,16,02,95.10
2018,01,25,16,03,97.00
2018,01,25,16,04,96.40
2018,01,25,16,05,93.30
2018,01,25,16,06,88.30
2018,01,25,16,07,84.60
2018,01,25,16,08,85.70
2018,01,25,16,09,85.80
2018,01,25,16,10,83.40
2018,01,25,16,11,79.60
2018,01,25,16,12,75.70
2018,01,25,16,13,71.00
2018,01,25,16,14,66.10
2018,01,25,16,15,62.40
2018,01,25,16,16,57.60
2018,01,25,16,17,53.80
2018,01,25,16,18,52.30
2018,01,25,16,19,50.00
2018,01,25,16,20,47.80
2018,01,25,16,21,46.30
2018,01,25,16,22,46.00
2018,01,25,16,23,43.80
2018,01,25,16,24,42.00
2018,01,25,16,25,42.00
2018,01,25,16,26,41.00
2018,01,25,16,27,40.00
2018,01,25,16,28,40.00
2018,01,25,16,29,40.00
2018,01,25,16,30,40.00
2018,01,25,16,31,40.00
2018,01,25,16,32,40.00
2018,01,25,16,33,39.50
2018,01,25,16,34,39.00
2018,01,25,16,35,37.50
2018,01,25,16,36,35.10
2018,01,25,16,37,32.60
2018,01,25,16,38,29.50
2018,01,25,16,39,27.10
2018,01,25,16,40,25.50
2018,01,25,16,41,23.70
2018,01,25,16,42,21.40
2018,01,25,16,43,19.10
2018,01,25,16,44,18.00
2018,01,25,16,45,17.40
2018,01,25,16,46,16.00
2018,01,25,16,47,16.00
2018,01,25,16,48,14.70
2018,01,25,16,49,14.00
2018,01,25,16,50,12.10
2018,01,25,16,51,11.80
2018,01,25,16,52,11.00
2018,01,25,16,53,10.20
2018,01,25,16,54,9.00
2018,01,25,16,55,9.00
2018,01,25,16,56,7.40
2018,01,25,16,57,6.80
2018,01,25,16,58,5.00
2018,01,25,16,59,5.00
2018,01,25,17,00,5.00
2018,01,25,17,01,2.10
2018,01,25,17,02,0.00
2018,01,25,17,03,0.00
2018,01,25,17,04,0.00
2018,01,25,17,05,0.00
2018,01,25,17,06,0.00
2018,01,25,17,07,0.00
2018,01,25,17,08,0.00
2018,01,25,17,09,0.00
2018,01,25,17,10,0.00
2018,01,25,17,11,0.00
2018,01,25,17,12,0.00
2018,01,25,17,13,0.00
2018,01,25,17,14,0.00
2018,01,25,17,15,0.00
2018,01,25,17,16,0.00
2018,01,25,17,17,0.00
2018,01,25,17,18,0.00
2018,01,25,17,19,0.00
2018,01,25,17,20,0.00
2018,01,25,17,21,0.00
2018,01,25,17,22,0.00
2018,01,25,17,23,0.00
2018,01,25,17,24,0.00
2018,01,25,17,25,0.00
2018,01,25,17,26,0.00
2018,01,25,17,27,0.00
2018,01,25,17,28,0.00
2018,01,25,17,29,0.00
2018,01,25,17,30,0.00
2018,01,25,17,31,0.00
2018,01,25,17,32,0.00
2018,01,25,17,33,0.00
2018,01,25,17,34,0.00
2018,01,25,17,35,0.00
2018,01,25,17,36,0.00